Vorticity
3 4 4 4 4 4 4 5 6 6 6 6 6 6 7 8 7 5 5 4 5 7 8 7 6 6 7 8 7 6 6 6 5 5 5 4 3 4 5 5 4 3 3 4 5 8 8 9 9 8 7 7 6 5 5 4 5 6 7 6 8 8 5 8 7 5 8 7 4 6 8 7 6 9 10 5 11 9 3 10 8 6 11 6 -4
2 3 4 4 4 4 4 5 6 6 6 6 6 6 8 8 7 5 4 4 5 7 8 9 7 6 6 7 6 6 8 5 4 5 4 3 3 3 5 6 4 3 3 4 5 8 5 4 5 5 5 5 4 5 6 5 5 7 7 7 9 7 5 7 7 8 6 5 5 7 8 6 5 7 11 9 11 9 10 12 5 6 8 6 8
4 2 3 4 4 4 4 5 6 6 6 6 6 6 7 8 9 8 7 6 8 9 9 12 10 6 5 5 4 6 7 4 3 3 3 3 3 4 6 6 5 3 3 5 5 7 5 1 5 7 6 5 8 8 6 5 5 6 6 7 7 5 6 7 11 14 9 7 7 7 7 7 6 5 9 8 7 8 8 9 6 8 9 8 9
5 3 3 3 4 4 4 5 6 6 7 5 6 6 7 8 9 9 9 9 9 8 7 9 9 7 6 5 6 7 5 4 4 3 3 3 4 4 6 7 6 5 5 6 3 3 4 2 6 7 6 5 9 9 6 5 4 6 6 6 7 6 8 9 9 6 5 11 9 6 9 9 5 3 6 6 7 8 7 9 10 8 8 8 8
6 5 3 4 3 4 4 4 5 6 6 5 6 6 7 7 7 7 7 7 6 6 5 5 6 7 7 6 6 6 5 4 4 4 4 3 4 4 5 7 7 6 6 6 3 2 1 1 4 4 5 4 4 6 7 6 7 9 7 6 7 6 5 5 4 2 3 7 11 8 8 8 3 4 6 5 5 4 3 6 7 6 6 6 7
4 5 5 4 4 4 4 4 5 6 6 6 6 6 7 6 5 5 4 6 5 4 4 5 7 7 7 7 7 4 4 5 5 4 3 3 4 4 5 7 8 7 6 6 3 3 -0 1 5 4 4 3 4 6 7 7 7 8 8 8 8 8 6 4 2 4 5 7 19 11 0 8 7 6 6 7 6 1 1 2 4 7 6 6 9
3 5 5 6 4 4 4 4 5 5 5 6 6 6 6 6 4 3 5 6 5 4 1 3 7 10 9 9 10 6 4 5 5 4 3 3 4 5 6 6 7 6 6 6 5 4 2 4 6 4 3 2 6 7 8 10 6 5 10 11 9 9 6 7 4 3 6 7 12 2 -3 8 6 4 6 11 11 5 5 4 7 7 6 9 10
4 4 5 6 5 5 5 4 5 4 5 6 6 6 6 6 5 4 6 5 3 4 3 4 7 11 11 11 14 10 5 5 5 4 3 4 5 6 6 6 6 6 5 5 6 3 4 7 4 4 3 2 8 7 7 11 7 5 10 12 10 11 7 6 7 6 7 2 -1 -3 2 8 3 3 6 8 5 4 6 6 8 7 8 8 5
4 3 4 5 5 5 5 4 4 4 4 5 6 6 6 6 6 6 7 5 3 4 5 8 10 10 11 12 16 13 5 4 5 4 4 5 5 6 5 6 5 6 5 5 4 2 6 8 3 3 4 4 9 5 5 8 8 7 9 13 12 11 10 7 8 7 6 3 3 2 5 11 8 6 8 6 4 6 7 7 7 5 6 5 5
4 4 3 5 6 6 5 4 4 4 4 4 5 5 6 7 7 6 6 5 3 3 5 11 13 9 11 14 14 13 6 3 6 4 4 6 5 6 5 5 5 6 5 5 3 3 6 7 4 5 4 4 7 7 6 7 8 7 8 14 12 11 12 8 10 8 5 4 6 6 7 15 8 2 10 8 6 7 6 7 5 4 5 6 8
4 4 4 4 5 6 5 5 5 4 4 3 4 5 6 7 7 5 4 3 3 3 4 8 8 6 9 14 12 10 7 4 6 5 5 6 5 5 5 5 5 6 6 5 4 4 5 5 6 4 4 5 10 11 9 8 8 7 8 12 10 13 13 7 10 8 7 7 8 6 3 11 3 -6 5 7 5 6 6 6 4 5 7 7 7
4 4 4 4 4 5 5 4 5 4 4 4 4 5 5 7 7 4 3 3 4 3 5 4 2 5 6 11 14 9 7 6 5 5 5 5 5 4 5 5 5 6 5 5 5 6 5 5 6 5 7 8 11 11 10 10 8 7 7 9 7 13 17 8 8 8 10 13 8 -0 -1 10 5 -6 1 7 6 6 6 5 6 8 7 7 5
5 5 4 5 4 4 5 4 5 4 3 4 3 4 5 5 6 4 2 3 4 4 8 6 0 5 4 6 15 13 6 4 5 4 5 5 4 4 5 5 5 5 4 4 4 5 4 6 8 8 10 9 10 7 10 12 9 12 11 10 7 10 19 10 8 9 9 13 4 -2 7 11 1 -0 6 7 6 6 7 6 9 11 7 6 4
5 6 5 4 5 4 4 5 4 4 4 4 3 4 4 4 7 6 3 2 5 3 7 8 1 2 3 4 10 16 10 3 5 5 5 5 4 4 5 5 5 4 3 4 2 4 3 5 8 7 8 9 11 6 6 10 7 14 14 13 10 9 17 11 9 10 7 10 6 4 9 1 -4 5 8 6 7 7 7 7 11 11 7 6 6
5 7 6 4 5 4 4 4 4 3 3 4 3 4 5 6 8 8 5 4 4 1 4 8 6 1 3 6 4 12 15 5 3 6 5 4 4 4 4 5 5 4 2 4 3 4 3 6 7 5 7 6 10 8 5 11 9 11 13 15 13 11 16 9 8 10 6 6 5 7 2 -4 1 8 5 6 7 7 8 8 11 10 8 8 9
4 4 5 4 5 5 4 4 4 3 3 4 4 4 5 6 7 7 5 5 4 1 1 4 8 5 4 9 5 8 14 9 4 5 4 3 4 3 5 4 3 3 2 4 4 5 3 5 6 4 8 5 8 8 8 18 15 13 13 14 13 14 15 7 7 9 7 5 2 6 4 1 7 7 6 7 7 8 8 9 12 11 9 10 7
5 3 3 4 4 4 4 4 3 3 3 4 4 4 4 5 6 6 6 6 5 2 2 3 7 5 4 7 6 7 11 11 6 3 3 3 4 3 5 3 3 5 3 3 2 4 2 3 4 5 8 5 10 9 9 20 18 16 14 14 17 16 14 6 7 9 7 5 2 5 5 4 7 7 7 7 8 9 9 11 13 11 10 7 2
5 5 5 4 4 4 4 3 3 3 3 4 5 5 3 4 6 7 7 8 8 6 5 5 7 6 5 5 5 8 9 9 7 4 3 3 4 3 4 3 5 4 2 4 2 2 3 5 6 9 11 4 14 13 7 14 15 18 16 13 18 17 14 7 7 10 8 5 2 5 5 6 7 7 8 7 9 9 9 12 12 10 8 3 0
6 7 6 5 4 4 4 4 4 3 3 3 4 5 3 4 6 7 8 8 9 8 7 7 10 9 7 6 6 9 10 8 7 5 4 4 3 3 5 3 2 4 4 4 3 5 5 9 9 9 11 3 11 15 8 11 10 14 18 15 18 16 11 9 10 9 10 5 1 5 5 6 7 7 8 8 9 9 10 11 10 10 6 1 2
7 7 6 5 5 4 5 4 4 4 3 3 3 5 4 3 4 6 7 8 9 8 8 9 11 11 9 8 6 8 12 11 8 7 5 4 4 3 5 3 1 5 6 3 4 7 6 7 6 5 9 4 8 16 12 11 12 15 19 18 16 14 8 9 10 7 12 6 -0 4 6 6 7 8 9 9 10 9 9 9 10 9 4 3 4
5 6 8 7 6 4 5 5 4 4 3 3 3 4 4 4 3 4 6 7 9 7 7 7 7 9 10 9 8 8 12 14 10 8 7 4 4 4 5 4 2 5 5 5 5 3 5 5 5 6 6 4 7 22 21 9 15 19 18 17 13 13 9 9 7 6 12 6 -1 3 5 7 7 8 8 9 10 8 8 9 10 8 4 3 4
5 5 8 8 7 6 5 5 5 5 4 4 3 4 4 5 3 3 4 6 8 6 6 8 7 8 9 9 11 9 9 14 14 9 7 4 3 4 5 4 3 4 4 5 4 2 7 4 8 13 8 6 8 25 30 11 14 20 16 15 13 13 10 9 8 5 11 9 4 1 3 8 7 9 8 8 10 8 8 8 9 7 4 3 4
5 5 7 7 8 7 6 5 5 5 5 4 3 3 4 5 4 3 3 4 5 6 7 8 7 7 8 8 10 9 8 13 15 10 7 4 4 5 5 5 3 5 5 4 4 4 6 3 9 12 5 8 8 18 27 13 8 11 12 15 13 14 10 9 8 5 9 11 10 3 2 8 9 9 8 7 9 9 8 8 9 6 4 4 4
6 6 7 6 6 7 7 6 5 6 5 5 4 3 4 4 4 3 3 4 4 5 7 7 7 8 8 9 9 8 8 11 13 9 6 3 3 5 4 6 5 6 6 4 4 4 6 5 5 6 3 5 5 12 22 16 12 10 11 14 13 13 9 8 6 3 5 9 13 8 3 8 9 9 8 7 8 9 9 8 8 6 5 5 4
8 7 6 5 4 5 6 6 5 5 5 6 4 3 4 4 4 4 3 4 5 4 5 7 7 8 8 9 9 9 8 9 12 8 5 4 3 5 4 5 6 5 5 5 6 7 7 4 2 8 11 8 6 12 18 17 20 18 13 10 10 12 11 9 7 5 3 5 12 11 7 8 9 9 9 8 8 9 9 8 8 7 6 5 4
6 5 6 7 5 5 5 5 5 4 5 6 5 4 3 4 5 4 4 3 5 5 5 6 6 6 8 9 9 10 9 8 10 8 4 4 4 4 3 4 6 4 4 5 6 7 5 4 6 7 10 10 8 10 14 16 19 17 10 9 9 9 11 12 10 9 5 4 8 10 9 9 9 9 8 9 9 10 9 9 9 8 7 6 5
7 5 7 8 6 6 5 4 4 4 4 5 5 5 3 4 5 5 5 4 5 7 7 6 5 3 4 7 9 10 12 8 8 9 4 4 5 4 4 4 4 3 4 5 6 7 4 7 8 2 3 8 8 9 13 15 16 13 6 7 11 9 9 10 10 11 8 5 6 8 9 9 9 9 8 9 10 10 10 9 9 8 7 7 6
9 8 9 9 5 4 6 6 4 5 5 4 5 5 4 4 5 6 6 5 5 7 8 7 5 4 4 6 8 11 13 11 7 7 6 4 4 5 6 4 3 3 4 5 7 7 4 7 6 -0 3 8 8 9 14 16 14 13 10 7 9 9 7 6 7 9 9 8 7 7 8 9 9 8 7 8 9 10 10 9 8 8 7 7 7
6 7 9 10 7 5 7 7 5 5 5 5 4 4 5 4 5 7 6 6 5 6 8 9 7 6 7 6 6 9 11 12 10 8 6 4 3 4 6 4 3 4 5 6 7 6 3 4 2 2 6 9 8 7 12 17 12 11 15 13 8 7 8 6 6 8 8 9 8 8 8 8 9 8 8 7 8 9 10 9 8 8 7 7 8
6 9 10 9 7 6 7 8 7 7 6 6 6 4 6 5 6 8 7 6 5 6 7 8 8 7 8 7 6 7 9 11 9 9 8 4 2 3 6 5 4 5 5 6 7 7 5 6 10 10 8 7 9 8 8 15 14 7 9 14 11 7 9 7 6 8 8 9 8 7 8 9 9 9 8 7 8 8 8 9 9 8 7 7 8
5 8 10 10 9 7 7 9 8 7 7 7 7 5 6 6 6 7 7 6 4 4 6 7 8 7 7 7 7 7 8 10 8 8 9 5 2 3 7 5 5 6 5 6 6 7 5 6 12 10 5 6 9 8 5 9 12 9 8 11 9 5 9 8 5 7 8 8 8 8 8 8 9 9 9 8 8 8 8 9 9 9 8 7 8
3 7 13 11 7 8 7 8 8 7 8 7 7 6 5 7 8 8 7 6 6 4 5 7 8 8 7 6 8 8 9 10 8 7 9 7 3 4 7 5 6 6 5 6 6 9 4 1 4 1 3 7 7 9 8 7 7 12 15 11 8 7 8 7 4 6 7 7 9 9 9 8 8 9 9 9 10 9 8 9 9 8 9 8 8
3 7 13 6 3 8 7 8 8 6 8 6 5 5 5 6 6 8 9 6 5 6 5 6 8 8 7 7 7 8 9 10 9 7 8 9 4 4 6 5 6 6 6 5 6 11 5 4 5 -7 -4 5 6 9 8 8 9 11 15 11 8 7 6 7 7 8 7 6 8 9 9 9 8 8 8 9 10 10 10 10 10 9 9 9 9
7 6 9 6 3 7 6 8 8 7 12 8 2 3 6 6 2 2 8 8 5 5 7 6 7 8 7 8 9 9 9 10 11 7 6 9 6 3 5 5 6 6 7 5 6 11 4 4 2 -10 1 9 4 8 4 5 9 10 13 12 10 5 4 7 7 8 7 5 7 8 9 9 8 8 8 9 9 9 9 10 10 9 9 9 10
8 8 10 7 7 9 7 9 8 7 13 8 1 3 7 8 7 1 0 7 6 5 7 7 7 7 7 8 9 10 10 10 11 9 6 8 6 4 4 5 6 6 7 6 6 10 6 3 3 4 13 8 -0 8 7 4 7 10 13 11 9 8 7 8 7 10 9 5 5 6 7 7 7 8 8 9 9 9 9 9 9 8 8 8 8
16 17 15 11 11 10 9 12 10 8 11 9 3 5 8 7 11 8 -2 0 2 0 4 6 7 7 6 8 9 10 10 11 12 10 7 8 7 4 5 5 5 6 6 6 6 8 8 5 8 11 9 2 1 8 6 4 6 10 11 10 11 9 7 7 8 10 9 7 5 5 6 6 6 7 7 8 8 8 8 8 8 8 8 7 7
24 25 26 23 18 10 7 9 9 8 8 8 6 7 9 6 8 12 7 6 5 2 2 4 5 6 7 7 8 9 9 10 12 12 9 8 8 4 5 5 5 6 6 7 7 7 8 7 8 8 5 5 4 5 6 6 9 11 9 10 12 12 8 6 7 7 8 8 7 6 6 6 7 6 6 6 6 7 7 7 6 6 7 6 7
19 19 19 19 21 20 16 13 13 12 7 7 10 10 10 7 8 10 8 9 8 5 4 4 5 5 7 8 7 8 8 10 12 13 11 10 9 5 4 6 5 5 5 7 7 7 8 8 7 5 5 5 2 6 10 5 7 12 10 9 11 14 11 6 7 7 6 7 7 8 7 7 7 7 7 6 5 6 5 5 5 5 5 4 5
20 20 17 13 17 23 22 18 17 16 13 13 14 11 9 9 11 11 9 10 9 5 2 3 5 4 5 7 7 8 7 9 11 12 12 11 9 6 4 6 6 5 4 7 8 7 7 8 7 6 4 4 4 7 8 3 2 6 9 12 13 16 12 6 7 6 6 7 6 7 7 7 8 8 8 7 7 7 6 5 4 4 4 3 4
14 17 20 17 16 19 19 19 19 18 16 15 13 10 9 12 17 16 10 8 9 8 4 3 5 6 5 5 6 8 8 8 10 11 12 10 8 6 6 6 6 5 4 6 8 8 8 7 7 6 5 6 6 6 9 7 5 6 7 7 8 11 11 8 7 5 5 6 5 7 7 6 7 7 8 8 8 8 8 7 7 6 5 5 5
7 8 10 11 12 13 14 15 16 17 18 18 18 16 11 13 19 20 12 5 5 5 5 7 8 6 6 5 4 4 7 8 9 10 9 9 7 6 7 6 5 5 5 6 7 8 9 7 6 6 5 5 5 7 10 8 8 12 10 8 7 7 8 8 6 6 5 5 6 6 5 6 7 7 7 7 8 8 8 9 9 8 7 7 7
6 5 5 6 7 7 7 8 10 13 16 19 22 24 20 16 16 17 14 13 17 13 6 7 9 8 7 5 5 7 10 9 9 9 7 7 8 7 7 6 5 5 5 5 5 8 10 7 6 6 5 5 5 6 8 6 6 9 9 11 9 6 9 10 8 8 7 5 7 6 6 7 6 7 7 6 7 7 7 8 8 8 7 7 6
8 7 6 7 7 5 2 3 6 9 12 13 14 19 22 21 18 17 16 16 23 23 15 12 12 10 5 3 6 11 12 8 8 10 7 6 7 7 7 6 5 4 6 5 3 7 10 7 5 5 5 5 5 5 6 6 4 6 8 9 8 6 7 10 11 12 10 8 7 7 7 7 7 8 7 7 7 7 7 8 7 7 7 7 7
6 8 7 7 8 7 4 3 5 7 8 7 8 11 13 15 16 17 19 18 17 17 13 12 13 11 7 8 10 11 10 6 7 10 8 6 6 7 7 6 5 4 5 5 4 5 7 8 6 5 5 5 5 6 6 7 4 5 7 6 9 7 1 6 11 10 10 9 8 9 8 8 9 8 8 8 8 8 7 7 7 7 7 7 7
4 5 5 6 5 6 6 5 6 6 8 6 7 10 10 10 10 10 13 15 16 17 13 9 11 13 13 13 14 11 8 6 8 10 9 7 6 6 7 6 5 4 4 5 4 4 5 7 7 5 6 5 5 6 6 8 6 5 7 6 9 8 3 8 10 6 8 9 7 8 6 7 8 6 7 8 7 8 8 7 8 7 8 8 8
5 4 4 4 4 4 4 3 4 4 5 6 6 8 9 8 8 9 9 9 11 17 21 19 11 7 8 11 13 10 5 6 9 9 8 10 7 5 7 6 5 4 4 5 4 4 4 5 6 6 6 5 5 6 6 8 7 6 8 6 6 8 7 8 8 6 8 8 7 8 6 6 6 5 6 7 7 9 8 9 9 9 9 9 9
6 6 5 5 4 4 4 3 4 3 3 4 4 6 8 8 7 8 9 8 8 9 17 25 21 11 6 8 13 13 8 7 8 7 8 10 8 6 7 6 6 5 3 4 4 3 3 3 5 5 5 4 4 6 6 8 9 6 7 6 6 7 6 6 7 7 8 6 7 9 7 7 7 7 7 7 7 8 8 8 8 8 9 8 9
6 6 6 6 6 6 6 4 4 4 4 4 4 4 5 7 8 7 6 6 7 7 8 14 20 20 14 9 10 13 12 8 6 7 8 8 8 8 8 6 6 6 4 3 4 3 3 3 4 4 5 5 4 5 5 7 9 8 8 7 6 7 7 6 6 7 8 5 6 9 8 7 8 7 7 6 7 7 7 7 7 8 8 8 8
5 5 5 6 6 6 6 6 5 4 5 5 5 5 4 5 6 7 8 6 6 9 9 8 12 18 18 14 11 10 11 8 6 7 6 7 8 8 8 7 6 6 5 4 3 4 4 3 3 4 5 6 5 5 4 6 9 9 9 8 8 9 8 7 5 7 7 4 7 9 6 6 7 8 8 6 6 7 7 7 8 8 8 8 7
6 5 5 5 5 6 5 5 6 5 5 5 5 5 5 5 5 6 7 8 7 8 10 10 9 11 13 14 15 14 12 11 11 9 6 6 7 8 9 8 6 5 6 5 2 3 5 5 4 3 4 5 5 6 5 6 7 9 10 9 9 8 7 6 5 6 7 5 7 9 6 5 6 8 10 6 5 7 6 7 8 7 8 8 7
6 5 5 5 4 5 5 5 6 5 5 5 5 5 5 5 5 6 5 6 7 7 7 8 8 9 10 10 12 14 15 16 15 13 10 7 6 8 8 8 7 5 6 5 1 2 4 5 6 5 4 4 4 5 5 6 7 8 9 8 9 9 7 7 5 5 7 6 7 8 8 8 6 7 7 5 6 6 5 6 7 7 7 6 7
Height
5924 5924 5924 5924 5924 5924 5925 5925 5925 5925 5924 5923 5922 5923 5923 5924 5924 5923 5923 5922 5922 5921 5920 5920 5919 5919 5919 5919 5919 5919 5919 5920 5921 5922 5922 5922 5921 5921 5920 5919 5918 5917 5916 5916 5916 5917 5918 5918 5917 5916 5915 5914 5913 5912 5913 5914 5915 5914 5913 5913 5911 5912 5916 5918 5916 5915 5916 5915 5915 5915 5916 5916 5915 5913 5912 5915 5916 5917 5918 5918 5919 5919 5921 5922 5923
5924 5924 5924 5924 5924 5924 5925 5926 5926 5925 5924 5923 5923 5923 5924 5924 5924 5923 5923 5923 5922 5921 5920 5920 5919 5919 5919 5919 5919 5919 5920 5920 5921 5922 5922 5922 5921 5921 5920 5919 5918 5917 5916 5915 5915 5915 5916 5917 5917 5916 5915 5914 5913 5913 5913 5913 5914 5913 5912 5914 5912 5911 5915 5917 5916 5916 5916 5915 5915 5915 5916 5916 5916 5913 5912 5913 5915 5918 5919 5919 5919 5920 5921 5923 5924
5924 5924 5924 5925 5925 5925 5925 5926 5926 5926 5925 5924 5924 5924 5924 5924 5924 5923 5923 5923 5923 5922 5921 5920 5920 5919 5919 5919 5919 5919 5919 5920 5921 5922 5922 5922 5922 5921 5920 5920 5919 5918 5916 5915 5914 5914 5915 5916 5916 5916 5916 5915 5914 5914 5913 5913 5914 5913 5912 5914 5912 5911 5914 5914 5914 5915 5916 5915 5915 5915 5916 5917 5916 5914 5913 5913 5914 5916 5919 5920 5920 5921 5922 5923 5924
5925 5924 5924 5925 5925 5925 5926 5926 5926 5927 5926 5925 5924 5924 5924 5924 5923 5923 5923 5924 5923 5923 5922 5921 5921 5920 5920 5919 5919 5919 5919 5920 5921 5921 5922 5922 5922 5921 5921 5920 5919 5918 5917 5915 5913 5913 5914 5915 5914 5915 5916 5916 5915 5914 5913 5914 5914 5914 5913 5913 5913 5912 5913 5912 5912 5914 5915 5915 5915 5915 5916 5916 5916 5916 5916 5914 5913 5914 5916 5919 5921 5922 5922 5923 5924
5925 5925 5925 5925 5925 5926 5926 5926 5927 5927 5926 5926 5925 5925 5924 5924 5923 5923 5923 5924 5923 5923 5923 5922 5922 5921 5920 5920 5919 5919 5919 5920 5920 5921 5921 5922 5922 5922 5921 5920 5919 5918 5917 5916 5914 5913 5914 5915 5914 5914 5916 5916 5915 5914 5914 5914 5914 5915 5914 5913 5913 5914 5913 5911 5910 5912 5913 5914 5914 5916 5916 5915 5916 5917 5917 5917 5915 5914 5914 5917 5920 5921 5922 5922 5923
5926 5926 5926 5925 5925 5926 5926 5926 5927 5927 5927 5926 5926 5926 5925 5924 5924 5923 5923 5923 5923 5923 5923 5923 5923 5922 5922 5921 5920 5920 5919 5920 5920 5921 5921 5921 5922 5921 5921 5920 5920 5919 5917 5916 5914 5913 5914 5915 5914 5915 5916 5916 5915 5914 5914 5914 5914 5915 5915 5913 5913 5914 5914 5913 5910 5910 5911 5911 5912 5914 5916 5915 5916 5917 5917 5918 5918 5917 5916 5916 5918 5920 5921 5921 5923
5926 5926 5926 5926 5926 5927 5927 5927 5927 5927 5927 5927 5927 5926 5926 5925 5924 5924 5924 5924 5923 5923 5923 5923 5923 5923 5922 5921 5920 5920 5920 5920 5921 5921 5921 5921 5921 5921 5921 5920 5920 5919 5918 5916 5915 5915 5916 5916 5915 5915 5916 5916 5915 5914 5914 5914 5914 5914 5915 5914 5914 5914 5914 5913 5911 5911 5912 5910 5909 5911 5914 5916 5916 5917 5918 5919 5920 5920 5919 5919 5919 5920 5921 5921 5922
5927 5927 5927 5927 5927 5927 5928 5928 5928 5927 5927 5927 5927 5927 5927 5926 5925 5925 5925 5924 5924 5924 5923 5923 5923 5923 5922 5921 5921 5921 5921 5921 5921 5921 5921 5921 5921 5921 5921 5921 5920 5919 5918 5917 5916 5917 5918 5917 5915 5914 5915 5916 5916 5914 5913 5912 5912 5913 5914 5914 5915 5915 5914 5914 5912 5912 5914 5912 5911 5912 5912 5915 5916 5917 5919 5920 5920 5921 5921 5920 5920 5921 5921 5922 5922
5927 5927 5928 5928 5928 5928 5929 5928 5928 5928 5928 5928 5928 5928 5927 5927 5926 5926 5926 5925 5925 5924 5924 5924 5924 5923 5923 5922 5922 5921 5922 5922 5922 5921 5922 5922 5922 5922 5921 5921 5920 5920 5919 5918 5917 5919 5920 5918 5915 5913 5914 5915 5916 5915 5914 5912 5911 5912 5912 5914 5914 5915 5915 5915 5913 5913 5915 5913 5914 5914 5913 5915 5917 5918 5919 5920 5920 5920 5921 5921 5921 5922 5922 5922 5923
5928 5928 5928 5928 5929 5929 5929 5929 5929 5929 5928 5928 5928 5928 5927 5927 5927 5926 5926 5926 5925 5925 5925 5925 5925 5924 5923 5923 5923 5923 5923 5923 5922 5922 5923 5923 5922 5922 5921 5920 5920 5919 5919 5918 5918 5920 5921 5918 5915 5914 5914 5915 5915 5915 5915 5913 5911 5910 5911 5912 5913 5914 5915 5915 5915 5914 5915 5914 5915 5916 5915 5914 5915 5918 5920 5920 5920 5921 5921 5922 5922 5922 5922 5923 5924
5928 5928 5928 5929 5929 5930 5930 5930 5930 5929 5929 5929 5929 5928 5928 5927 5927 5926 5926 5926 5926 5926 5926 5926 5925 5925 5924 5924 5924 5924 5924 5924 5923 5923 5923 5923 5923 5922 5921 5920 5920 5919 5918 5918 5919 5920 5920 5918 5916 5915 5915 5915 5915 5915 5915 5914 5912 5910 5910 5911 5912 5913 5914 5915 5916 5916 5915 5915 5916 5916 5917 5916 5914 5916 5919 5920 5921 5921 5922 5922 5923 5923 5923 5924 5926
5929 5929 5929 5929 5930 5930 5930 5931 5931 5930 5929 5929 5929 5929 5928 5927 5927 5926 5926 5926 5926 5926 5926 5926 5925 5925 5925 5925 5925 5925 5925 5925 5924 5923 5923 5923 5923 5922 5922 5921 5920 5919 5918 5918 5919 5920 5918 5918 5918 5917 5916 5915 5914 5914 5914 5914 5913 5911 5909 5909 5910 5910 5912 5913 5915 5916 5915 5915 5917 5916 5916 5916 5916 5915 5917 5920 5921 5921 5922 5922 5923 5923 5924 5925 5926
5929 5929 5929 5929 5930 5930 5931 5931 5931 5931 5930 5930 5930 5930 5929 5928 5928 5927 5927 5927 5926 5926 5926 5926 5926 5926 5926 5925 5926 5926 5926 5925 5925 5924 5924 5924 5923 5923 5922 5922 5921 5919 5919 5918 5919 5920 5918 5917 5917 5917 5917 5915 5913 5913 5913 5914 5913 5912 5910 5909 5908 5908 5910 5911 5913 5915 5916 5916 5916 5917 5916 5917 5919 5918 5918 5919 5919 5920 5921 5922 5922 5923 5924 5926 5927
5928 5929 5928 5929 5929 5930 5930 5931 5931 5931 5930 5930 5931 5931 5930 5929 5929 5928 5928 5927 5927 5927 5927 5927 5927 5927 5926 5926 5926 5926 5926 5926 5926 5925 5925 5924 5924 5923 5923 5922 5921 5921 5920 5919 5919 5919 5918 5917 5916 5916 5916 5915 5913 5912 5911 5912 5912 5912 5911 5910 5908 5907 5908 5909 5911 5913 5915 5916 5916 5916 5917 5919 5920 5919 5918 5918 5918 5919 5920 5921 5923 5924 5925 5926 5928
5928 5928 5928 5928 5929 5929 5930 5931 5931 5931 5931 5931 5931 5931 5931 5930 5930 5929 5929 5929 5928 5928 5928 5928 5928 5928 5927 5927 5927 5927 5927 5927 5926 5926 5926 5925 5924 5924 5923 5923 5922 5921 5920 5918 5918 5918 5917 5916 5916 5915 5914 5914 5913 5912 5910 5909 5910 5911 5911 5910 5909 5908 5908 5909 5910 5911 5913 5915 5916 5917 5918 5919 5919 5919 5918 5918 5918 5919 5921 5922 5923 5924 5926 5927 5928
5927 5927 5927 5928 5928 5929 5929 5930 5930 5931 5931 5931 5931 5931 5931 5931 5930 5930 5930 5929 5929 5929 5929 5929 5928 5928 5928 5927 5927 5927 5927 5927 5927 5927 5926 5925 5925 5924 5924 5924 5922 5920 5918 5918 5917 5917 5917 5916 5915 5914 5913 5913 5913 5912 5910 5908 5907 5908 5910 5911 5910 5909 5908 5909 5909 5910 5912 5913 5915 5917 5918 5918 5919 5919 5919 5919 5920 5921 5922 5923 5924 5925 5927 5928 5929
5926 5926 5927 5927 5928 5928 5928 5929 5929 5930 5930 5930 5930 5931 5931 5931 5930 5930 5930 5930 5930 5930 5930 5929 5929 5928 5928 5928 5927 5927 5927 5927 5927 5927 5926 5926 5925 5925 5924 5924 5922 5920 5918 5918 5917 5916 5916 5916 5914 5913 5913 5913 5912 5911 5910 5909 5907 5906 5908 5910 5910 5910 5910 5910 5910 5911 5912 5914 5915 5916 5917 5918 5919 5920 5920 5921 5921 5922 5923 5924 5925 5926 5927 5929 5930
5926 5926 5927 5927 5927 5928 5928 5928 5928 5929 5929 5930 5930 5930 5930 5930 5930 5929 5929 5930 5930 5930 5930 5930 5929 5929 5928 5928 5927 5927 5927 5927 5927 5926 5926 5926 5925 5924 5924 5924 5922 5920 5919 5918 5918 5917 5916 5916 5915 5914 5913 5913 5911 5911 5910 5909 5907 5906 5907 5908 5910 5910 5911 5911 5912 5912 5913 5914 5915 5916 5918 5919 5920 5921 5922 5922 5923 5923 5924 5925 5926 5927 5928 5929 5931
5926 5926 5927 5927 5927 5927 5928 5928 5928 5928 5929 5929 5929 5929 5929 5930 5929 5929 5929 5929 5929 5930 5930 5930 5929 5929 5929 5928 5927 5927 5927 5927 5927 5927 5926 5926 5925 5924 5924 5923 5922 5921 5920 5919 5919 5918 5916 5915 5916 5915 5914 5913 5911 5910 5909 5908 5907 5907 5906 5907 5909 5910 5912 5913 5913 5914 5914 5915 5916 5917 5918 5920 5921 5922 5923 5923 5924 5924 5925 5926 5927 5928 5929 5930 5931
5925 5926 5927 5927 5927 5927 5927 5928 5928 5928 5928 5928 5928 5928 5928 5929 5929 5929 5929 5929 5929 5929 5929 5929 5929 5929 5928 5928 5927 5927 5927 5927 5927 5927 5926 5926 5925 5924 5924 5923 5923 5922 5921 5920 5919 5919 5917 5915 5916 5916 5915 5913 5912 5910 5908 5907 5907 5907 5907 5907 5909 5910 5911 5913 5914 5915 5915 5916 5917 5918 5918 5919 5921 5922 5923 5924 5924 5925 5925 5926 5927 5928 5930 5931 5931
5925 5925 5926 5927 5927 5927 5927 5927 5927 5927 5928 5928 5928 5928 5928 5928 5928 5928 5928 5928 5928 5928 5929 5928 5928 5928 5928 5928 5927 5927 5927 5927 5926 5926 5926 5926 5925 5925 5924 5924 5924 5922 5922 5922 5921 5920 5918 5916 5916 5916 5915 5913 5912 5910 5908 5907 5907 5907 5907 5908 5909 5910 5911 5913 5914 5915 5916 5917 5918 5918 5919 5919 5920 5922 5923 5924 5924 5925 5925 5926 5928 5929 5930 5931 5932
5923 5924 5925 5926 5926 5926 5926 5926 5926 5927 5927 5927 5927 5927 5927 5927 5927 5928 5927 5928 5928 5928 5928 5927 5928 5928 5928 5927 5927 5927 5927 5926 5926 5926 5926 5926 5926 5925 5925 5924 5924 5922 5922 5923 5923 5921 5920 5918 5917 5916 5915 5914 5912 5910 5908 5907 5907 5907 5908 5908 5909 5910 5911 5913 5914 5915 5916 5918 5918 5919 5919 5920 5921 5922 5922 5923 5924 5925 5926 5927 5928 5929 5930 5931 5932
5922 5923 5924 5925 5925 5925 5925 5925 5925 5925 5926 5926 5926 5926 5926 5926 5926 5926 5927 5927 5927 5927 5927 5927 5927 5927 5927 5927 5926 5926 5926 5926 5925 5925 5926 5926 5926 5926 5925 5925 5924 5923 5922 5923 5924 5923 5922 5921 5919 5917 5915 5913 5912 5909 5908 5907 5908 5908 5909 5909 5910 5911 5912 5913 5914 5915 5917 5918 5919 5919 5920 5921 5921 5922 5923 5923 5925 5925 5926 5927 5928 5929 5930 5931 5932
5920 5921 5922 5923 5923 5923 5923 5923 5924 5924 5924 5925 5925 5925 5926 5925 5925 5925 5925 5926 5926 5926 5926 5925 5925 5926 5926 5926 5926 5925 5925 5925 5925 5925 5926 5926 5926 5926 5925 5925 5925 5924 5923 5922 5922 5922 5922 5921 5919 5917 5915 5913 5911 5909 5908 5908 5908 5909 5909 5910 5910 5911 5912 5914 5915 5916 5917 5918 5919 5920 5921 5921 5922 5923 5923 5924 5925 5926 5927 5928 5929 5930 5931 5932 5933
5919 5920 5921 5921 5921 5921 5921 5922 5922 5922 5923 5923 5924 5924 5925 5925 5924 5924 5924 5925 5925 5925 5925 5924 5924 5924 5924 5925 5925 5924 5924 5925 5925 5925 5925 5925 5925 5925 5925 5925 5925 5924 5923 5921 5920 5920 5919 5918 5916 5914 5914 5913 5912 5910 5909 5909 5909 5909 5910 5910 5911 5912 5913 5914 5915 5916 5917 5918 5919 5920 5921 5922 5922 5923 5924 5924 5925 5926 5927 5928 5929 5930 5931 5932 5933
5918 5919 5919 5919 5919 5919 5919 5919 5920 5921 5921 5922 5923 5923 5923 5924 5924 5923 5923 5924 5924 5924 5924 5924 5924 5924 5924 5924 5924 5924 5924 5924 5924 5924 5925 5925 5925 5925 5925 5925 5925 5924 5923 5922 5920 5918 5916 5916 5914 5913 5914 5914 5913 5911 5910 5910 5910 5910 5911 5911 5912 5914 5914 5915 5916 5917 5917 5918 5919 5920 5921 5922 5923 5923 5924 5925 5925 5926 5928 5928 5929 5930 5931 5932 5933
5917 5917 5918 5918 5917 5917 5917 5917 5918 5919 5919 5920 5921 5921 5921 5922 5922 5922 5922 5922 5923 5923 5923 5924 5924 5924 5924 5923 5923 5923 5923 5923 5923 5924 5924 5924 5925 5925 5925 5925 5925 5924 5923 5922 5920 5918 5917 5917 5915 5915 5915 5915 5915 5914 5912 5912 5912 5911 5912 5913 5914 5914 5915 5915 5916 5917 5918 5919 5920 5921 5921 5922 5923 5924 5924 5925 5926 5926 5928 5929 5929 5930 5931 5932 5933
5916 5916 5916 5916 5916 5916 5916 5916 5916 5917 5918 5918 5919 5919 5919 5920 5921 5922 5922 5921 5922 5923 5923 5924 5924 5924 5924 5923 5923 5922 5922 5922 5923 5923 5923 5924 5924 5925 5925 5924 5925 5924 5923 5922 5921 5919 5919 5919 5917 5916 5916 5915 5915 5915 5914 5913 5913 5913 5913 5914 5915 5915 5916 5916 5916 5917 5918 5919 5920 5921 5922 5922 5923 5924 5925 5925 5926 5926 5927 5928 5929 5930 5931 5932 5933
5914 5914 5915 5915 5915 5915 5915 5915 5915 5915 5916 5916 5916 5917 5918 5919 5920 5921 5921 5921 5921 5922 5923 5923 5923 5924 5923 5922 5922 5921 5921 5921 5922 5922 5923 5923 5924 5924 5924 5924 5924 5924 5923 5922 5921 5920 5921 5921 5920 5918 5917 5915 5915 5914 5914 5914 5914 5914 5914 5914 5915 5916 5917 5917 5917 5918 5918 5919 5920 5921 5922 5923 5923 5924 5925 5925 5926 5926 5927 5928 5929 5930 5931 5932 5933
5911 5912 5913 5914 5914 5914 5914 5914 5914 5914 5914 5915 5915 5916 5917 5917 5919 5920 5920 5920 5920 5921 5922 5922 5922 5922 5922 5921 5921 5920 5920 5920 5921 5921 5922 5922 5923 5923 5923 5923 5923 5923 5923 5922 5921 5921 5922 5922 5922 5920 5918 5916 5915 5914 5915 5914 5915 5916 5915 5915 5916 5916 5918 5918 5918 5918 5919 5920 5920 5921 5922 5923 5923 5924 5925 5925 5926 5926 5927 5928 5928 5929 5930 5931 5932
5911 5911 5912 5913 5913 5914 5914 5914 5914 5914 5914 5914 5915 5915 5916 5917 5918 5918 5919 5919 5919 5920 5920 5921 5921 5921 5921 5921 5920 5919 5919 5919 5919 5920 5920 5921 5922 5922 5922 5922 5922 5922 5923 5922 5922 5922 5922 5922 5922 5922 5920 5918 5917 5916 5915 5915 5915 5916 5916 5916 5916 5917 5918 5918 5918 5919 5919 5920 5921 5922 5923 5923 5924 5924 5925 5926 5926 5926 5926 5927 5928 5929 5930 5931 5932
5911 5911 5911 5911 5912 5912 5912 5913 5914 5914 5914 5915 5915 5915 5915 5916 5916 5917 5918 5918 5918 5918 5918 5919 5920 5920 5920 5920 5920 5919 5919 5918 5918 5918 5919 5919 5920 5921 5921 5921 5921 5922 5922 5922 5922 5922 5922 5922 5923 5922 5921 5920 5919 5918 5917 5916 5915 5915 5914 5916 5917 5917 5918 5918 5919 5919 5920 5921 5921 5922 5923 5924 5924 5924 5925 5925 5926 5926 5927 5927 5928 5929 5930 5930 5931
5910 5909 5909 5910 5910 5909 5910 5912 5914 5914 5915 5915 5915 5915 5915 5915 5915 5915 5916 5916 5917 5917 5917 5918 5918 5919 5919 5919 5920 5919 5918 5918 5918 5917 5917 5918 5919 5920 5920 5920 5921 5921 5921 5921 5922 5922 5922 5922 5922 5922 5921 5921 5920 5919 5918 5917 5916 5915 5915 5916 5917 5918 5919 5919 5919 5920 5921 5922 5922 5923 5923 5924 5924 5924 5925 5925 5926 5926 5927 5927 5928 5929 5929 5930 5931
5908 5908 5908 5909 5909 5908 5909 5911 5913 5914 5915 5915 5915 5913 5913 5913 5913 5914 5915 5915 5916 5916 5916 5916 5917 5917 5918 5918 5919 5919 5918 5918 5917 5917 5916 5917 5917 5918 5919 5919 5920 5920 5920 5921 5922 5922 5921 5922 5922 5921 5921 5921 5920 5919 5918 5917 5917 5916 5915 5916 5917 5919 5919 5919 5920 5921 5921 5922 5923 5923 5924 5924 5924 5924 5925 5925 5926 5926 5927 5927 5928 5929 5929 5930 5930
5906 5907 5908 5909 5909 5909 5910 5911 5911 5913 5914 5914 5914 5912 5911 5911 5911 5912 5914 5914 5915 5915 5916 5916 5916 5916 5917 5917 5918 5918 5918 5917 5917 5916 5916 5916 5916 5917 5918 5918 5919 5919 5919 5920 5921 5922 5921 5921 5922 5921 5921 5920 5920 5919 5918 5917 5917 5917 5917 5916 5917 5919 5919 5919 5920 5921 5922 5922 5923 5924 5924 5924 5924 5924 5925 5926 5926 5926 5927 5927 5928 5928 5929 5929 5930
5905 5906 5907 5908 5909 5909 5909 5909 5909 5911 5911 5912 5911 5910 5910 5910 5911 5911 5912 5914 5915 5915 5915 5915 5915 5915 5915 5916 5917 5917 5917 5917 5916 5916 5915 5915 5915 5916 5917 5917 5918 5918 5918 5919 5920 5921 5921 5921 5921 5921 5920 5920 5920 5920 5919 5918 5917 5917 5917 5916 5917 5919 5919 5919 5920 5921 5922 5923 5923 5924 5924 5924 5924 5925 5925 5926 5926 5926 5927 5927 5928 5928 5929 5929 5930
5904 5905 5905 5906 5907 5908 5908 5908 5908 5909 5909 5910 5909 5908 5909 5909 5911 5911 5912 5914 5914 5914 5914 5914 5914 5914 5914 5915 5916 5916 5916 5916 5916 5915 5915 5914 5915 5915 5916 5916 5917 5917 5918 5918 5918 5920 5921 5920 5920 5920 5920 5920 5920 5920 5920 5919 5919 5918 5917 5918 5919 5919 5919 5919 5920 5921 5922 5922 5923 5923 5924 5924 5925 5925 5925 5926 5926 5926 5927 5927 5927 5928 5928 5929 5929
5904 5904 5904 5905 5905 5906 5906 5906 5907 5908 5908 5909 5908 5908 5908 5909 5910 5911 5912 5912 5912 5912 5912 5913 5913 5913 5913 5914 5914 5915 5915 5915 5915 5915 5915 5914 5914 5914 5915 5915 5916 5916 5917 5917 5917 5918 5920 5920 5919 5919 5919 5920 5920 5920 5920 5919 5919 5918 5917 5919 5921 5919 5919 5920 5920 5921 5921 5922 5922 5923 5923 5924 5925 5925 5925 5926 5926 5926 5927 5927 5927 5928 5928 5929 5929
5905 5904 5904 5904 5904 5904 5904 5905 5905 5906 5907 5907 5907 5907 5907 5907 5908 5909 5909 5909 5909 5909 5910 5911 5911 5912 5912 5913 5913 5914 5914 5914 5914 5914 5914 5914 5913 5914 5914 5914 5915 5916 5916 5916 5917 5917 5918 5919 5920 5919 5919 5919 5919 5919 5919 5919 5920 5919 5919 5921 5921 5919 5919 5920 5920 5921 5921 5921 5922 5923 5923 5924 5924 5925 5925 5925 5926 5926 5927 5927 5927 5927 5928 5928 5929
5906 5905 5905 5905 5904 5904 5904 5904 5905 5905 5905 5905 5905 5905 5905 5905 5905 5906 5906 5906 5906 5907 5908 5909 5910 5910 5910 5911 5911 5912 5912 5913 5913 5913 5913 5913 5913 5913 5913 5913 5914 5915 5915 5916 5916 5916 5917 5918 5919 5919 5919 5919 5919 5919 5919 5919 5920 5919 5919 5920 5920 5920 5920 5920 5921 5921 5921 5921 5921 5922 5923 5923 5924 5924 5925 5925 5926 5926 5926 5927 5927 5927 5928 5928 5928
5907 5906 5905 5905 5905 5905 5904 5905 5905 5905 5904 5904 5904 5903 5904 5904 5903 5903 5903 5903 5904 5905 5906 5907 5907 5908 5909 5909 5909 5910 5911 5911 5911 5912 5912 5912 5912 5912 5912 5912 5913 5914 5915 5915 5916 5916 5916 5917 5917 5918 5918 5918 5918 5919 5919 5919 5919 5918 5918 5918 5919 5919 5919 5920 5920 5921 5921 5921 5921 5921 5922 5923 5923 5924 5924 5925 5925 5926 5926 5926 5927 5927 5927 5927 5928
5908 5908 5907 5906 5905 5905 5905 5905 5905 5905 5904 5904 5903 5903 5902 5902 5901 5901 5901 5901 5902 5902 5904 5905 5905 5906 5907 5908 5908 5908 5909 5909 5910 5910 5911 5911 5911 5911 5911 5911 5911 5912 5914 5914 5915 5915 5916 5916 5917 5917 5917 5918 5918 5918 5918 5918 5918 5917 5917 5917 5918 5918 5919 5919 5920 5920 5921 5920 5920 5921 5921 5922 5923 5923 5924 5924 5925 5925 5925 5926 5926 5927 5927 5927 5927
5909 5909 5909 5908 5907 5906 5905 5905 5905 5904 5904 5903 5903 5902 5901 5900 5900 5899 5900 5900 5900 5900 5902 5903 5903 5904 5905 5906 5906 5906 5907 5907 5908 5908 5909 5910 5910 5910 5910 5910 5910 5911 5912 5913 5914 5915 5916 5916 5916 5916 5917 5917 5917 5917 5917 5917 5917 5917 5917 5917 5918 5918 5919 5919 5920 5920 5920 5920 5920 5920 5921 5921 5922 5923 5923 5923 5924 5924 5925 5925 5926 5926 5926 5927 5927
5910 5910 5910 5909 5909 5908 5906 5905 5904 5903 5903 5902 5901 5900 5900 5899 5899 5899 5899 5900 5900 5900 5900 5901 5901 5901 5902 5903 5904 5904 5904 5905 5906 5906 5907 5908 5909 5909 5909 5909 5910 5910 5911 5912 5913 5914 5915 5916 5916 5916 5916 5917 5917 5917 5917 5917 5917 5917 5917 5917 5917 5918 5918 5918 5919 5919 5919 5920 5920 5920 5920 5921 5921 5922 5922 5923 5923 5924 5924 5925 5925 5925 5926 5926 5926
5911 5910 5910 5910 5909 5908 5907 5906 5904 5903 5902 5901 5901 5900 5899 5899 5899 5899 5899 5899 5899 5899 5899 5899 5899 5899 5899 5900 5901 5902 5902 5902 5903 5904 5904 5905 5907 5907 5908 5908 5909 5909 5910 5911 5912 5913 5914 5915 5916 5916 5916 5916 5917 5917 5917 5917 5917 5917 5917 5916 5916 5917 5917 5917 5918 5918 5919 5920 5920 5920 5920 5921 5921 5921 5922 5922 5923 5923 5923 5924 5924 5925 5925 5925 5926
5911 5911 5910 5909 5909 5908 5907 5906 5905 5903 5902 5901 5901 5900 5899 5899 5899 5899 5899 5898 5898 5898 5897 5897 5897 5897 5897 5898 5898 5899 5899 5900 5901 5901 5902 5903 5904 5905 5906 5907 5907 5908 5908 5910 5911 5912 5913 5914 5915 5915 5915 5916 5916 5917 5917 5917 5917 5917 5916 5916 5916 5916 5916 5917 5917 5917 5918 5919 5920 5920 5920 5920 5921 5921 5921 5922 5922 5922 5923 5923 5923 5924 5924 5925 5925
5911 5911 5910 5909 5909 5908 5907 5906 5905 5904 5902 5901 5901 5900 5899 5899 5899 5899 5898 5897 5897 5896 5896 5895 5895 5895 5896 5896 5896 5897 5897 5897 5899 5899 5900 5901 5902 5903 5904 5905 5906 5906 5906 5908 5909 5910 5911 5912 5913 5914 5914 5915 5915 5916 5916 5917 5917 5916 5916 5915 5915 5915 5915 5916 5916 5917 5917 5918 5919 5920 5920 5920 5920 5921 5921 5921 5922 5922 5922 5923 5923 5923 5924 5924 5924
5911 5910 5909 5909 5908 5907 5907 5906 5905 5903 5902 5901 5900 5900 5899 5898 5898 5898 5897 5897 5896 5895 5894 5894 5894 5894 5894 5895 5895 5895 5894 5895 5896 5897 5897 5898 5899 5900 5901 5902 5903 5904 5904 5905 5907 5908 5908 5910 5911 5912 5913 5913 5914 5915 5915 5916 5916 5916 5916 5915 5915 5915 5915 5915 5916 5916 5917 5918 5919 5919 5919 5920 5920 5920 5921 5921 5921 5922 5922 5922 5923 5923 5923 5924 5924
5910 5909 5908 5908 5907 5907 5906 5905 5904 5903 5902 5901 5901 5900 5899 5898 5897 5897 5896 5895 5895 5894 5893 5893 5893 5893 5892 5893 5893 5892 5891 5891 5892 5894 5894 5895 5896 5897 5898 5899 5900 5901 5902 5903 5904 5905 5906 5907 5908 5909 5910 5911 5912 5913 5914 5914 5915 5915 5915 5915 5915 5914 5914 5914 5915 5916 5916 5917 5918 5918 5919 5919 5920 5920 5920 5920 5921 5921 5922 5922 5922 5922 5923 5923 5923
5909 5908 5907 5907 5906 5905 5904 5904 5903 5902 5902 5901 5900 5899 5898 5897 5896 5895 5895 5895 5894 5893 5892 5892 5892 5891 5891 5890 5890 5890 5889 5889 5889 5890 5891 5892 5893 5894 5895 5896 5897 5898 5900 5901 5901 5903 5904 5905 5906 5907 5908 5909 5910 5911 5912 5912 5913 5914 5914 5914 5914 5914 5914 5914 5914 5915 5915 5916 5916 5917 5917 5918 5918 5919 5919 5920 5920 5920 5921 5921 5922 5922 5922 5922 5923
5909 5908 5907 5906 5905 5904 5903 5902 5901 5901 5900 5899 5899 5898 5897 5897 5896 5895 5894 5894 5893 5892 5891 5890 5890 5889 5889 5888 5887 5887 5887 5887 5887 5887 5888 5889 5890 5891 5892 5893 5894 5895 5896 5898 5899 5900 5902 5903 5904 5905 5906 5907 5908 5909 5909 5910 5911 5912 5912 5913 5913 5913 5913 5913 5913 5914 5914 5914 5915 5915 5916 5916 5917 5917 5918 5918 5919 5919 5920 5920 5921 5921 5921 5922 5922